Location: *
(51.2167°N, 10.0667°E)
Time: 08:20:43
(UTC+00:00)

S3M - Pass Details

Date: 12 December 2019
Orbit: 948 x 1005 km, 83.0° (Epoch: 20 January)

Event Time Altitude Azimuth Distance (km) Brightness Sun altitude
Rises 18:15:47 0° 348° (NNW) 3,689 7.1 -27.4°
Reaches altitude 10° 18:18:20 10° 345° (NNW) 2,728 6.4 -27.8°
Maximum altitude 18:24:28 63° 266° (W) 1,068 4.3 -28.8°
Drops below altitude 10° 18:30:30 10° 187° (S) 2,677 6.4 -29.7°
Sets 18:32:59 0° 184° (S) 3,614 7.0 -30.1°
